Location: Stony Creek
(40.9500°S, 175.8500°E)
Time: 09:04:14
(UTC+00:00)

UNK - Pass Details

Date: 15 May 2026
Orbit: 653 x 672 km, 98.4° (Epoch: 9 June)

Event Time Altitude Azimuth Distance (km) Brightness Sun altitude
Rises 18:07:21 0° 170° (S) 3,062 7.1 -13.4°
Reaches altitude 10° 18:09:36 10° 172° (S) 2,139 6.3 -12.9°
Maximum altitude 18:14:16 70° 254° (WSW) 726 3.7 -12.1°
Drops below altitude 10° 18:18:50 10° 337° (NNW) 2,102 6.2 -11.3°
Sets 18:21:03 0° 339° (NNW) 3,005 7.0 -10.9°
